TimeEDT,TemperatureF,Dew PointF,Humidity,Sea Level PressureIn,VisibilityMPH,Wind Direction,Wind SpeedMPH,Gust SpeedMPH,PrecipitationIn,Events,Conditions,WindDirDegrees,DateUTC
12:53 AM,64.0,61.0,90,30.02,10.0,Calm,Calm,-,N/A,,Clear,0,2012-11-02 04:53:00
1:07 AM,60.8,59.0,94,30.02,1.8,Calm,Calm,-,N/A,,Clear,0,2012-11-02 05:07:00
1:16 AM,62.6,60.8,94,30.02,3.0,Calm,Calm,-,N/A,,Clear,0,2012-11-02 05:16:00
1:25 AM,60.8,60.8,100,30.02,1.0,Calm,Calm,-,N/A,,Mist,0,2012-11-02 05:25:00
1:35 AM,60.8,59.0,94,30.02,2.0,Calm,Calm,-,N/A,,Clear,0,2012-11-02 05:35:00
1:48 AM,60.8,59.0,94,30.02,0.8,Calm,Calm,-,N/A,,Clear,0,2012-11-02 05:48:00
1:53 AM,61.0,59.0,93,30.02,0.8,Calm,Calm,-,N/A,,Clear,0,2012-11-02 05:53:00
2:00 AM,62.6,60.8,94,30.02,1.2,Calm,Calm,-,N/A,,Clear,0,2012-11-02 06:00:00
2:18 AM,60.8,59.0,94,30.03,0.2,Calm,Calm,-,N/A,Fog,Fog,0,2012-11-02 06:18:00
2:36 AM,59.0,57.2,94,30.03,1.2,SSE,3.5,-,N/A,,Scattered Clouds,160,2012-11-02 06:36:00
2:41 AM,59.0,57.2,94,30.03,3.0,Calm,Calm,-,N/A,,Partly Cloudy,0,2012-11-02 06:41:00
2:53 AM,61.0,59.0,93,30.03,8.0,Calm,Calm,-,N/A,,Partly Cloudy,0,2012-11-02 06:53:00
3:07 AM,62.6,60.8,94,30.03,1.8,Calm,Calm,-,N/A,,Scattered Clouds,0,2012-11-02 07:07:00
3:16 AM,60.8,60.8,100,30.03,2.0,Calm,Calm,-,N/A,,Mostly Cloudy,0,2012-11-02 07:16:00
3:23 AM,60.8,59.0,94,30.02,9.0,Calm,Calm,-,N/A,,Mostly Cloudy,0,2012-11-02 07:23:00
3:45 AM,59.0,57.2,94,30.03,8.0,Calm,Calm,-,N/A,,Scattered Clouds,0,2012-11-02 07:45:00
3:53 AM,59.0,57.9,96,30.03,5.0,Calm,Calm,-,N/A,,Partly Cloudy,0,2012-11-02 07:53:00
4:10 AM,57.2,57.2,100,30.03,1.8,Calm,Calm,-,N/A,,Scattered Clouds,0,2012-11-02 08:10:00
4:14 AM,57.2,57.2,100,30.03,1.8,Calm,Calm,-,N/A,,Mostly Cloudy,0,2012-11-02 08:14:00
4:19 AM,59.0,57.2,94,30.03,4.0,Calm,Calm,-,N/A,,Mostly Cloudy,0,2012-11-02 08:19:00
4:23 AM,60.8,57.2,88,30.03,1.5,Calm,Calm,-,N/A,,Mostly Cloudy,0,2012-11-02 08:23:00
4:44 AM,57.2,57.2,100,30.03,0.8,Calm,Calm,-,N/A,,Mist,0,2012-11-02 08:44:00
4:50 AM,57.2,55.4,94,30.03,1.2,Calm,Calm,-,N/A,,Overcast,0,2012-11-02 08:50:00
4:53 AM,57.9,55.9,93,30.03,2.0,Calm,Calm,-,N/A,,Mostly Cloudy,0,2012-11-02 08:53:00
5:00 AM,57.2,57.2,100,30.03,8.0,Calm,Calm,-,N/A,,Mostly Cloudy,0,2012-11-02 09:00:00
5:08 AM,59.0,57.2,94,30.03,6.0,NNE,4.6,-,N/A,,Scattered Clouds,30,2012-11-02 09:08:00
5:17 AM,60.8,59.0,94,30.03,2.5,NNE,4.6,-,N/A,,Mostly Cloudy,20,2012-11-02 09:17:00
5:23 AM,62.6,60.8,94,30.03,0.8,NNE,4.6,-,N/A,,Mist,30,2012-11-02 09:23:00
5:53 AM,62.1,62.1,100,30.03,0.2,NNE,4.6,-,N/A,Fog,Fog,20,2012-11-02 09:53:00
6:53 AM,59.0,57.9,96,30.04,0.2,Calm,Calm,-,N/A,Fog,Fog,0,2012-11-02 10:53:00
7:45 AM,59.0,57.2,94,30.05,1.2,ENE,4.6,-,N/A,,Scattered Clouds,60,2012-11-02 11:45:00
7:47 AM,59.0,57.2,94,30.06,3.0,ENE,4.6,-,N/A,,Scattered Clouds,60,2012-11-02 11:47:00
7:53 AM,59.0,57.9,96,30.06,10.0,ENE,4.6,-,N/A,,Clear,60,2012-11-02 11:53:00
8:53 AM,61.0,60.1,97,30.07,10.0,ENE,4.6,-,N/A,,Clear,60,2012-11-02 12:53:00
9:53 AM,68.0,57.0,68,30.09,10.0,NE,4.6,-,N/A,,Clear,50,2012-11-02 13:53:00
10:53 AM,73.0,53.1,49,30.10,10.0,Variable,3.5,-,N/A,,Clear,0,2012-11-02 14:53:00
11:53 AM,75.0,55.9,51,30.09,10.0,Variable,3.5,-,N/A,,Clear,0,2012-11-02 15:53:00
12:53 PM,75.0,55.9,51,30.08,10.0,West,10.4,-,N/A,,Clear,260,2012-11-02 16:53:00
1:53 PM,75.9,55.9,50,30.06,10.0,West,11.5,-,N/A,,Clear,270,2012-11-02 17:53:00
2:53 PM,75.9,54.0,46,30.04,10.0,West,12.7,-,N/A,,Clear,270,2012-11-02 18:53:00
3:53 PM,75.0,55.0,50,30.04,10.0,West,11.5,-,N/A,,Clear,280,2012-11-02 19:53:00
4:53 PM,73.9,53.1,48,30.04,10.0,WNW,11.5,-,N/A,,Clear,290,2012-11-02 20:53:00
5:53 PM,72.0,55.9,57,30.04,10.0,WNW,9.2,-,N/A,,Clear,290,2012-11-02 21:53:00
6:53 PM,68.0,55.0,63,30.04,10.0,NW,6.9,-,N/A,,Clear,310,2012-11-02 22:53:00
7:53 PM,66.0,57.0,73,30.06,10.0,Calm,Calm,-,N/A,,Clear,0,2012-11-02 23:53:00
8:53 PM,63.0,55.9,78,30.07,10.0,Calm,Calm,-,N/A,,Clear,0,2012-11-03 00:53:00
9:53 PM,62.1,55.9,80,30.08,10.0,Calm,Calm,-,N/A,,Clear,0,2012-11-03 01:53:00
10:53 PM,60.1,55.0,83,30.08,10.0,Calm,Calm,-,N/A,,Clear,0,2012-11-03 02:53:00
11:53 PM,57.0,54.0,89,30.09,10.0,SSE,3.5,-,N/A,,Clear,160,2012-11-03 03:53:00